"Period start","avg(HW err(1)/warn(2) (#))","avg(Visibility (m))","avg(Weather code (#))","avg(Precip intensity (mm/h))","min(HW err(1)/warn(2) (#))","max(HW err(1)/warn(2) (#))","std(HW err(1)/warn(2) (#))","med(HW err(1)/warn(2) (#))","min(Visibility (m))","max(Visibility (m))","std(Visibility (m))","med(Visibility (m))","min(Weather code (#))","max(Weather code (#))","std(Weather code (#))","med(Weather code (#))","min(Precip intensity (mm/h))","max(Precip intensity (mm/h))","std(Precip intensity (mm/h))","med(Precip intensity (mm/h))"
2014-06-01 00:00:00,2,7967,10,0.00,2,2,0,2,4431,12020,2441,7602,10,10,0,10,0.00,0.00,0.00,0.00
2014-06-01 00:10:00,2,6688,10,0.00,2,2,0,2,2008,21622,5807,4470,10,10,0,10,0.00,0.00,0.00,0.00
2014-06-01 00:20:00,2,24514,8,0.00,2,2,0,2,12662,42712,10639,19722,0,10,4,10,0.00,0.00,0.00,0.00
2014-06-01 00:30:00,2,39871,0,0.00,2,2,0,2,6901,50000,14365,46926,0,0,0,0,0.00,0.00,0.00,0.00
2014-06-01 00:40:00,2,14533,4,0.00,2,2,0,2,8066,26621,5860,12550,0,40,12,0,0.00,0.00,0.00,0.00
2014-06-01 00:50:00,2,10342,50,0.08,2,2,0,2,6337,25439,5716,8125,40,51,3,51,0.00,0.15,0.05,0.10
2014-06-01 01:00:00,2,20687,26,0.03,2,2,0,2,5360,35833,8978,22312,0,51,26,26,0.00,0.30,0.09,0.00
2014-06-01 01:10:00,2,6038,3,0.00,2,2,0,2,3087,9650,2462,6047,0,10,5,0,0.00,0.00,0.00,0.00
2014-06-01 01:20:00,2,3376,10,0.00,2,2,0,2,1489,6742,1634,2610,10,10,0,10,0.00,0.00,0.00,0.00
2014-06-01 01:30:00,2,6931,10,0.00,2,2,0,2,4088,12507,3001,5633,10,10,0,10,0.00,0.00,0.00,0.00
2014-06-01 01:40:00,2,3768,10,0.00,2,2,0,2,2398,8495,1682,3215,10,10,0,10,0.00,0.00,0.00,0.00
2014-06-01 01:50:00,2,3961,10,0.00,2,2,0,2,1352,10852,3337,1616,10,10,0,10,0.00,0.00,0.00,0.00
2014-06-01 02:00:00,2,1191,25,0.10,2,2,0,2,843,1935,328,1062,10,41,15,25,0.00,0.25,0.12,0.00
2014-06-01 02:10:00,2,1330,23,0.04,2,2,0,2,823,2038,372,1224,10,61,21,10,0.00,0.25,0.08,0.00
2014-06-01 02:20:00,2,1365,10,0.00,2,2,0,2,988,1924,252,1330,10,10,0,10,0.00,0.00,0.00,0.00
2014-06-01 02:30:00,2,1223,10,0.00,2,2,0,2,834,1945,333,1170,10,10,0,10,0.00,0.00,0.00,0.00
2014-06-01 02:40:00,2,961,24,0.01,2,2,0,2,722,1554,238,882,10,41,11,30,0.00,0.15,0.05,0.00
2014-06-01 02:50:00,2,853,66,0.09,2,2,0,2,633,1123,149,818,41,77,16,77,0.00,0.20,0.06,0.10
2014-06-01 03:00:00,2,909,77,0.11,2,2,0,2,626,1512,237,872,77,77,0,77,0.00,0.20,0.05,0.10
2014-06-01 03:10:00,2,954,63,0.11,2,2,0,2,609,1371,225,929,41,77,18,77,0.00,0.25,0.06,0.10
2014-06-01 03:20:00,2,1069,66,0.09,2,2,0,2,686,1518,287,999,41,77,16,77,0.00,0.20,0.06,0.08
2014-06-01 03:30:00,2,4881,26,0.01,2,2,0,2,2132,9515,2336,4260,20,41,10,20,0.00,0.05,0.02,0.00
2014-06-01 03:40:00,2,8157,20,0.00,2,2,0,2,5678,12801,1943,8084,20,20,0,20,0.00,0.00,0.00,0.00
2014-06-01 03:50:00,2,9047,20,0.00,2,2,0,2,7170,14413,2041,8602,20,20,0,20,0.00,0.00,0.00,0.00
2014-06-01 04:00:00,2,10156,20,0.00,2,2,0,2,5870,16423,3172,9330,20,20,0,20,0.00,0.00,0.00,0.00
2014-06-01 04:10:00,2,7672,20,0.00,2,2,0,2,3971,14092,2989,7281,20,20,0,20,0.00,0.00,0.00,0.00
2014-06-01 04:20:00,2,29188,20,0.00,2,2,0,2,14039,42753,8734,30111,20,20,0,20,0.00,0.00,0.00,0.00
2014-06-01 04:30:00,2,17943,0,0.00,2,2,0,2,11770,28675,5697,15516,0,0,0,0,0.00,0.00,0.00,0.00
2014-06-01 04:40:00,2,12274,0,0.00,2,2,0,2,8268,16757,2916,12746,0,0,0,0,0.00,0.00,0.00,0.00
2014-06-01 04:50:00,2,11996,0,0.00,2,2,0,2,8125,20440,4107,10632,0,0,0,0,0.00,0.00,0.00,0.00
2014-06-01 05:00:00,2,9008,5,0.00,2,2,0,2,4958,13861,2416,8668,0,10,5,5,0.00,0.00,0.00,0.00
2014-06-01 05:10:00,2,9901,10,0.00,2,2,0,2,5445,15781,3316,9023,10,10,0,10,0.00,0.00,0.00,0.00
2014-06-01 05:20:00,2,9512,10,0.00,2,2,0,2,5114,17317,3412,9112,10,10,0,10,0.00,0.00,0.00,0.00
2014-06-01 05:30:00,2,18800,10,0.00,2,2,0,2,4748,40967,11873,14978,10,10,0,10,0.00,0.00,0.00,0.00
2014-06-01 05:40:00,2,24807,0,0.00,2,2,0,2,11590,40485,8666,28190,0,0,0,0,0.00,0.00,0.00,0.00
2014-06-01 05:50:00,2,32023,0,0.00,2,2,0,2,24087,39383,5207,30030,0,0,0,0,0.00,0.00,0.00,0.00
2014-06-01 06:00:00,2,20082,0,0.00,2,2,0,2,10880,40872,8529,18967,0,0,0,0,0.00,0.00,0.00,0.00
2014-06-01 06:10:00,2,32619,0,0.00,2,2,0,2,20093,50000,9922,30899,0,0,0,0,0.00,0.00,0.00,0.00
2014-06-01 06:20:00,2,38931,0,0.00,2,2,0,2,18065,50000,11004,43335,0,0,0,0,0.00,0.00,0.00,0.00
2014-06-01 06:30:00,2,28703,0,0.00,2,2,0,2,18046,37367,6300,29172,0,0,0,0,0.00,0.00,0.00,0.00
2014-06-01 06:40:00,2,25644,0,0.00,2,2,0,2,16271,31623,4937,26302,0,0,0,0,0.00,0.00,0.00,0.00
2014-06-01 06:50:00,2,31626,0,0.00,2,2,0,2,19400,42370,7263,31932,0,0,0,0,0.00,0.00,0.00,0.00
2014-06-01 07:00:00,2,32997,0,0.00,2,2,0,2,25642,41779,5457,33016,0,0,0,0,0.00,0.00,0.00,0.00
2014-06-01 07:10:00,2,46429,0,0.00,2,2,0,2,35913,50000,4202,47094,0,0,0,0,0.00,0.00,0.00,0.00
2014-06-01 07:20:00,2,40826,0,0.00,2,2,0,2,36053,45233,3484,41528,0,0,0,0,0.00,0.00,0.00,0.00
2014-06-01 07:30:00,2,44530,0,0.00,2,2,0,2,34874,50000,5219,46288,0,0,0,0,0.00,0.00,0.00,0.00
2014-06-01 07:40:00,2,47969,0,0.00,2,2,0,2,41041,50000,2893,49741,0,0,0,0,0.00,0.00,0.00,0.00
2014-06-01 07:50:00,2,49384,0,0.00,2,2,0,2,47263,50000,879,50000,0,0,0,0,0.00,0.00,0.00,0.00
2014-06-01 08:00:00,2,50000,0,0.00,2,2,0,2,50000,50000,0,50000,0,0,0,0,0.00,0.00,0.00,0.00
2014-06-01 08:10:00,2,50000,0,0.00,2,2,0,2,50000,50000,0,50000,0,0,0,0,0.00,0.00,0.00,0.00
2014-06-01 08:20:00,2,50000,0,0.00,2,2,0,2,50000,50000,0,50000,0,0,0,0,0.00,0.00,0.00,0.00
2014-06-01 08:30:00,2,49738,0,0.00,2,2,0,2,47384,50000,785,50000,0,0,0,0,0.00,0.00,0.00,0.00
2014-06-01 08:40:00,2,49636,0,0.00,2,2,0,2,46842,50000,942,50000,0,0,0,0,0.00,0.00,0.00,0.00
2014-06-01 08:50:00,2,49988,0,0.00,2,2,0,2,49883,50000,35,50000,0,0,0,0,0.00,0.00,0.00,0.00
2014-06-01 09:00:00,2,49690,0,0.00,2,2,0,2,47123,50000,858,50000,0,0,0,0,0.00,0.00,0.00,0.00
2014-06-01 09:10:00,2,50000,0,0.00,2,2,0,2,50000,50000,0,50000,0,0,0,0,0.00,0.00,0.00,0.00
2014-06-01 09:20:00,2,49957,0,0.00,2,2,0,2,49570,50000,129,50000,0,0,0,0,0.00,0.00,0.00,0.00
2014-06-01 09:30:00,2,49917,0,0.00,2,2,0,2,49541,50000,168,50000,0,0,0,0,0.00,0.00,0.00,0.00
2014-06-01 09:40:00,2,49920,0,0.00,2,2,0,2,49201,50000,240,50000,0,0,0,0,0.00,0.00,0.00,0.00
2014-06-01 09:50:00,2,50000,0,0.00,2,2,0,2,50000,50000,0,50000,0,0,0,0,0.00,0.00,0.00,0.00
2014-06-01 10:00:00,2,49839,0,0.00,2,2,0,2,48387,50000,484,50000,0,0,0,0,0.00,0.00,0.00,0.00
2014-06-01 10:10:00,2,48372,0,0.00,2,2,0,2,42028,50000,2753,50000,0,0,0,0,0.00,0.00,0.00,0.00
2014-06-01 10:20:00,2,49890,0,0.00,2,2,0,2,49137,50000,261,50000,0,0,0,0,0.00,0.00,0.00,0.00
2014-06-01 10:30:00,2,49644,0,0.00,2,2,0,2,46438,50000,1069,50000,0,0,0,0,0.00,0.00,0.00,0.00
2014-06-01 10:40:00,2,48505,0,0.00,2,2,0,2,43312,50000,2424,49644,0,0,0,0,0.00,0.00,0.00,0.00
2014-06-01 10:50:00,2,50000,0,0.00,2,2,0,2,50000,50000,0,50000,0,0,0,0,0.00,0.00,0.00,0.00
2014-06-01 11:00:00,2,49111,0,0.00,2,2,0,2,43536,50000,1970,50000,0,0,0,0,0.00,0.00,0.00,0.00
2014-06-01 11:10:00,2,50000,0,0.00,2,2,0,2,50000,50000,0,50000,0,0,0,0,0.00,0.00,0.00,0.00
2014-06-01 11:20:00,2,49976,0,0.00,2,2,0,2,49765,50000,70,50000,0,0,0,0,0.00,0.00,0.00,0.00
2014-06-01 11:30:00,2,50000,0,0.00,2,2,0,2,50000,50000,0,50000,0,0,0,0,0.00,0.00,0.00,0.00
2014-06-01 11:40:00,2,49888,0,0.00,2,2,0,2,48881,50000,336,50000,0,0,0,0,0.00,0.00,0.00,0.00
2014-06-01 11:50:00,2,49586,0,0.00,2,2,0,2,47521,50000,848,50000,0,0,0,0,0.00,0.00,0.00,0.00
2014-06-01 12:00:00,2,49843,0,0.00,2,2,0,2,48979,50000,308,50000,0,0,0,0,0.00,0.00,0.00,0.00
2014-06-01 12:10:00,2,49939,0,0.00,2,2,0,2,49388,50000,184,50000,0,0,0,0,0.00,0.00,0.00,0.00
2014-06-01 12:20:00,2,49933,0,0.00,2,2,0,2,49326,50000,202,50000,0,0,0,0,0.00,0.00,0.00,0.00
2014-06-01 12:30:00,2,50000,0,0.00,2,2,0,2,50000,50000,0,50000,0,0,0,0,0.00,0.00,0.00,0.00
2014-06-01 12:40:00,2,49535,0,0.00,2,2,0,2,45418,50000,1372,50000,0,0,0,0,0.00,0.00,0.00,0.00
2014-06-01 12:50:00,2,50000,0,0.00,2,2,0,2,50000,50000,0,50000,0,0,0,0,0.00,0.00,0.00,0.00
2014-06-01 13:00:00,2,49970,0,0.00,2,2,0,2,49701,50000,90,50000,0,0,0,0,0.00,0.00,0.00,0.00
2014-06-01 13:10:00,2,50000,0,0.00,2,2,0,2,50000,50000,0,50000,0,0,0,0,0.00,0.00,0.00,0.00
2014-06-01 13:20:00,2,50000,0,0.00,2,2,0,2,50000,50000,0,50000,0,0,0,0,0.00,0.00,0.00,0.00
2014-06-01 13:30:00,2,49940,0,0.00,2,2,0,2,49399,50000,180,50000,0,0,0,0,0.00,0.00,0.00,0.00
2014-06-01 13:40:00,2,50000,0,0.00,2,2,0,2,50000,50000,0,50000,0,0,0,0,0.00,0.00,0.00,0.00
2014-06-01 13:50:00,2,50000,0,0.00,2,2,0,2,50000,50000,0,50000,0,0,0,0,0.00,0.00,0.00,0.00
2014-06-01 14:00:00,2,49982,0,0.00,2,2,0,2,49820,50000,54,50000,0,0,0,0,0.00,0.00,0.00,0.00
2014-06-01 14:10:00,2,49968,0,0.00,2,2,0,2,49680,50000,96,50000,0,0,0,0,0.00,0.00,0.00,0.00
2014-06-01 14:20:00,2,49472,0,0.00,2,2,0,2,46277,50000,1133,50000,0,0,0,0,0.00,0.00,0.00,0.00
2014-06-01 14:30:00,2,49974,0,0.00,2,2,0,2,49737,50000,79,50000,0,0,0,0,0.00,0.00,0.00,0.00
2014-06-01 14:40:00,2,49823,0,0.00,2,2,0,2,48997,50000,357,50000,0,0,0,0,0.00,0.00,0.00,0.00
2014-06-01 14:50:00,2,48584,0,0.00,2,2,0,2,44883,50000,1911,50000,0,0,0,0,0.00,0.00,0.00,0.00
2014-06-01 15:00:00,2,48073,0,0.00,2,2,0,2,38416,50000,3346,49116,0,0,0,0,0.00,0.00,0.00,0.00
2014-06-01 15:10:00,2,49529,0,0.00,2,2,0,2,45685,50000,1287,50000,0,0,0,0,0.00,0.00,0.00,0.00
2014-06-01 15:20:00,2,24199,0,0.00,2,2,0,2,7840,50000,17903,11200,0,0,0,0,0.00,0.00,0.00,0.00
2014-06-01 15:30:00,2,18415,0,0.00,2,2,0,2,11081,29200,5282,17643,0,0,0,0,0.00,0.00,0.00,0.00
2014-06-01 15:40:00,2,17509,0,0.00,2,2,0,2,4053,39181,10232,13870,0,0,0,0,0.00,0.00,0.00,0.00
2014-06-01 15:50:00,2,6060,6,0.00,2,2,0,2,2026,9811,2532,6076,0,10,5,10,0.00,0.00,0.00,0.00
2014-06-01 16:00:00,2,1164,12,0.00,2,2,0,2,503,3628,846,883,10,30,6,10,0.00,0.00,0.00,0.00
2014-06-01 16:10:00,2,489,36,0.07,2,2,0,2,417,693,72,468,34,40,3,34,0.00,0.35,0.13,0.00
2014-06-01 16:20:00,2,768,71,0.12,2,2,0,2,468,956,177,864,40,77,11,77,0.05,0.30,0.09,0.08
2014-06-01 16:30:00,2,1629,62,0.06,2,2,0,2,1155,2129,255,1614,0,77,27,77,0.00,0.20,0.06,0.05
2014-06-01 16:40:00,2,2372,20,0.00,2,2,0,2,1305,3457,760,2194,20,20,0,20,0.00,0.00,0.00,0.00
2014-06-01 16:50:00,2,5446,20,0.00,2,2,0,2,2214,10341,2853,4416,20,20,0,20,0.00,0.00,0.00,0.00
2014-06-01 17:00:00,2,5905,20,0.00,2,2,0,2,1149,11013,3536,5030,20,20,0,20,0.00,0.00,0.00,0.00
2014-06-01 17:10:00,2,2520,20,0.00,2,2,0,2,1115,3871,781,2667,20,20,0,20,0.00,0.00,0.00,0.00
2014-06-01 17:20:00,2,8747,10,0.00,2,2,0,2,2977,19585,5397,7170,10,10,0,10,0.00,0.00,0.00,0.00
2014-06-01 17:30:00,2,6731,9,0.00,2,2,0,2,2684,10429,2535,6446,0,10,3,10,0.00,0.00,0.00,0.00
2014-06-01 17:40:00,2,15357,6,0.00,2,2,0,2,4013,40894,11558,11087,0,10,5,10,0.00,0.00,0.00,0.00
2014-06-01 17:50:00,2,4219,62,0.03,2,2,0,2,2765,8034,1508,3723,0,77,25,77,0.00,0.05,0.02,0.05
2014-06-01 18:00:00,2,4640,76,0.02,2,2,0,2,2462,7166,1172,4562,71,77,2,77,0.00,0.05,0.02,0.00
2014-06-01 18:10:00,2,5428,76,0.03,2,2,0,2,2572,7664,1558,6138,71,77,2,77,0.00,0.10,0.03,0.00
2014-06-01 18:20:00,2,8491,75,0.01,2,2,0,2,4867,12733,2151,8815,71,77,3,77,0.00,0.05,0.02,0.00
2014-06-01 18:30:00,2,9767,75,0.02,2,2,0,2,5257,21863,4557,9214,71,77,3,77,0.00,0.05,0.02,0.00
2014-06-01 18:40:00,2,10112,67,0.00,2,2,0,2,6409,16092,2580,9450,41,77,13,71,0.00,0.00,0.00,0.00
2014-06-01 18:50:00,2,39767,15,0.00,2,2,0,2,15634,50000,13203,48364,0,77,31,0,0.00,0.00,0.00,0.00
2014-06-01 19:00:00,2,37266,0,0.00,2,2,0,2,8455,50000,14140,43828,0,0,0,0,0.00,0.00,0.00,0.00
2014-06-01 19:10:00,2,15451,0,0.00,2,2,0,2,6915,35286,8686,11785,0,0,0,0,0.00,0.00,0.00,0.00
2014-06-01 19:20:00,2,33788,0,0.00,2,2,0,2,13528,50000,14129,36421,0,0,0,0,0.00,0.00,0.00,0.00
2014-06-01 19:30:00,2,41612,0,0.00,2,2,0,2,24118,50000,8894,43362,0,0,0,0,0.00,0.00,0.00,0.00
2014-06-01 19:40:00,2,30507,0,0.00,2,2,0,2,13342,48842,10897,30010,0,0,0,0,0.00,0.00,0.00,0.00
2014-06-01 19:50:00,2,8213,39,0.09,2,2,0,2,2161,32332,9201,3370,0,77,34,40,0.00,0.30,0.10,0.07
2014-06-01 20:00:00,2,11751,66,0.33,2,2,0,2,1495,46570,15534,2692,0,77,22,71,0.00,1.25,0.38,0.20
2014-06-01 20:10:00,2,35641,21,0.01,2,2,0,2,5676,50000,19237,47868,0,71,33,0,0.00,0.05,0.02,0.00
2014-06-01 20:20:00,2,37435,53,0.00,2,2,0,2,14040,50000,12576,41950,0,77,35,77,0.00,0.00,0.00,0.00
2014-06-01 20:30:00,2,15488,14,0.00,2,2,0,2,9886,22248,3929,15987,0,71,28,0,0.00,0.00,0.00,0.00
2014-06-01 20:40:00,2,10568,62,0.03,2,2,0,2,3298,38455,10602,6342,10,77,26,77,0.00,0.10,0.03,0.00
2014-06-01 20:50:00,2,36752,5,0.00,2,2,0,2,10363,50000,15297,42994,0,10,5,5,0.00,0.00,0.00,0.00
2014-06-01 21:00:00,2,5629,51,0.02,2,2,0,2,3295,8181,1313,5910,0,77,30,59,0.00,0.05,0.02,0.00
2014-06-01 21:10:00,2,5999,77,0.10,2,2,0,2,2336,16220,3841,5252,77,77,0,77,0.00,0.30,0.10,0.05
2014-06-01 21:20:00,2,12210,77,0.04,2,2,0,2,3012,38845,10775,8698,77,77,0,77,0.00,0.15,0.05,0.03
2014-06-01 21:30:00,2,18962,5,0.00,2,2,0,2,11307,39677,8175,15984,0,10,5,5,0.00,0.00,0.00,0.00
2014-06-01 21:40:00,2,35377,0,0.00,2,2,0,2,17574,50000,12667,34620,0,0,0,0,0.00,0.00,0.00,0.00
2014-06-01 21:50:00,2,8717,12,0.01,2,2,0,2,6074,18539,3475,7512,0,41,19,0,0.00,0.05,0.02,0.00
2014-06-01 22:00:00,2,4448,65,0.20,2,2,0,2,2846,7919,1492,4121,41,71,12,71,0.05,0.60,0.17,0.15
2014-06-01 22:10:00,2,5981,75,0.07,2,2,0,2,2871,10417,2518,5768,71,77,3,77,0.00,0.20,0.08,0.05
2014-06-01 22:20:00,2,4692,74,0.17,2,2,0,2,1943,8999,2573,4096,71,77,3,74,0.00,0.55,0.19,0.05
2014-06-01 22:30:00,2,6550,75,0.02,2,2,0,2,4134,9268,1665,6388,71,77,3,77,0.00,0.05,0.02,0.00
2014-06-01 22:40:00,2,33044,13,0.00,2,2,0,2,14253,48703,13352,33632,0,77,22,10,0.00,0.00,0.00,0.00
2014-06-01 22:50:00,2,5203,55,0.12,2,2,0,2,2524,12426,3163,3817,0,77,25,59,0.00,0.75,0.22,0.05
2014-06-01 23:00:00,2,2541,72,0.68,2,2,0,2,1685,4109,697,2380,71,77,2,71,0.10,1.55,0.43,0.53
2014-06-01 23:10:00,2,3800,71,1.13,2,2,0,2,1845,9270,2032,3354,71,71,0,71,0.10,3.55,1.12,0.55
2014-06-01 23:20:00,2,3113,71,2.00,2,2,0,2,1362,9349,2174,2746,71,71,0,71,0.05,4.75,1.66,1.20
2014-06-01 23:30:00,2,7591,51,0.44,2,2,0,2,1579,19331,6252,3990,0,71,31,71,0.00,2.20,0.67,0.12
2014-06-01 23:40:00,2,4116,72,0.09,2,2,0,2,2792,7090,1486,3780,71,77,2,71,0.05,0.25,0.06,0.05
2014-06-01 23:50:00,2,14964,37,0.04,2,2,0,2,4332,22033,5617,15049,0,77,37,36,0.00,0.25,0.08,0.00
